RH
80 80 84 81 80 80 84 88 93 82 76 73 73 66 66 65 78 67 92 94 94 89 85 87 89 91 90 95 97 87 86 89 95 82 74 86 93 93 82 61 72 75 94
88 87 81 81 81 82 85 84 86 85 78 74 72 70 68 82 85 83 87 90 93 94 90 87 89 91 90 96 92 92 90 90 78 64 57 62 85 95 93 74 79 84 91
87 85 86 79 79 81 83 88 87 86 87 82 71 72 78 88 85 81 83 88 90 88 85 82 84 83 86 92 84 85 79 75 66 49 58 63 73 95 95 94 92 90 89
78 86 80 80 79 80 79 80 85 86 87 87 82 70 65 81 90 91 88 81 87 88 83 67 77 82 81 81 87 81 77 69 56 54 59 60 63 89 94 93 91 90 90
81 79 85 80 80 80 80 78 81 86 86 89 86 84 77 64 66 82 88 83 91 89 83 78 68 74 80 79 78 80 81 78 69 69 65 66 63 79 93 93 94 89 88
79 76 81 81 79 79 80 80 82 84 83 86 89 87 86 78 71 69 82 89 91 90 86 77 70 65 76 76 80 82 80 76 78 74 69 70 67 80 95 81 80 96 94
88 86 93 82 78 78 78 79 80 82 83 84 84 86 88 84 80 75 75 79 88 89 84 77 72 60 71 77 78 81 74 70 84 70 67 69 67 82 94 96 98 96 96
59 86 90 90 88 86 82 80 81 81 82 83 84 84 84 86 86 84 80 77 71 78 77 78 77 66 62 77 81 86 77 68 74 65 64 66 70 75 92 95 96 97 97
54 47 47 65 92 92 90 88 85 82 79 80 81 82 84 84 83 85 89 88 80 74 79 80 79 74 57 69 81 92 82 73 68 60 63 64 67 65 92 94 86 92 95
28 26 29 32 36 45 84 89 88 88 88 85 82 81 82 85 86 84 82 87 89 87 86 88 89 82 69 53 62 74 81 80 72 63 65 60 65 64 94 93 93 94 95
28 22 19 17 23 29 32 38 65 84 90 88 88 87 87 87 81 86 87 88 86 86 89 89 89 92 89 78 59 57 65 72 61 59 60 64 60 64 84 94 94 90 94
30 34 27 23 22 23 28 31 33 34 39 57 70 80 88 87 82 84 88 91 85 84 82 86 89 91 94 94 79 74 76 59 54 51 52 61 57 63 74 95 96 88 83
38 41 31 32 26 28 35 32 29 35 35 35 41 43 49 69 91 96 94 92 90 85 88 80 82 90 93 95 88 70 61 60 59 57 50 48 50 56 68 82 92 96 90
51 55 54 43 52 49 46 39 36 35 38 35 34 36 37 45 58 79 93 92 92 87 83 78 74 70 71 80 89 82 73 61 59 59 55 57 40 52 61 74 83 90 95
55 61 61 57 60 58 55 49 46 44 45 45 47 45 41 37 40 48 60 91 99 91 83 84 84 80 82 75 73 84 85 77 64 56 56 60 54 41 56 66 88 92 94
53 57 62 61 61 59 58 56 52 49 49 51 54 54 53 50 48 45 45 54 67 90 99 87 82 84 92 95 97 92 86 85 80 69 57 56 61 53 47 54 62 82 92
51 58 58 59 62 62 62 63 59 55 52 51 53 53 54 54 54 54 48 44 50 67 90 98 97 95 93 91 94 96 98 90 87 84 78 67 59 62 54 51 50 60 73
54 53 58 62 66 67 71 72 69 66 64 61 59 57 58 58 56 56 53 49 43 44 63 85 96 99 99 97 99 99 100 99 96 88 86 83 75 64 61 59 65 64 64
52 54 56 64 66 71 75 78 80 79 77 72 70 68 69 68 63 61 58 55 52 49 51 58 70 88 98 99 100 99 99 100 99 100 98 98 96 92 78 72 59 60 64
54 57 60 64 69 74 77 78 78 77 77 80 78 72 71 72 74 71 64 64 62 56 57 60 64 69 90 96 100 100 100 99 100 100 100 100 99 100 96 93 73 58 67
58 60 63 66 71 77 77 83 83 82 88 86 81 83 81 76 75 76 70 70 70 63 58 56 58 59 68 91 100 99 99 99 100 98 99 100 96 97 100 97 76 71 69
59 62 65 71 77 78 80 93 99 95 90 95 94 89 87 83 82 81 75 72 71 66 64 60 58 57 60 72 91 91 92 84 91 94 99 100 98 92 91 95 94 88 71
57 62 68 75 81 83 88 92 92 91 87 91 94 100 91 87 79 76 73 72 73 72 70 66 63 63 61 61 79 88 86 89 71 69 73 77 87 92 96 98 100 92 79
57 69 72 74 78 80 89 91 92 94 94 91 96 100 99 89 83 78 74 71 77 78 76 72 73 81 79 70 67 79 88 78 75 66 56 69 82 94 95 95 99 99 95
61 68 70 72 76 81 85 90 95 95 97 94 92 95 98 100 94 86 80 73 71 72 74 66 66 75 80 92 88 72 77 88 88 89 77 60 84 82 87 98 98 94 82
62 69 70 70 71 76 82 85 90 98 96 95 96 96 95 98 98 99 98 88 79 76 73 74 69 70 71 83 89 90 82 64 74 87 91 78 70 84 94 93 90 89 89
Wind_Speed
7 4 8 9 9 9 8 7 6 6 5 5 5 6 6 7 6 8 8 7 6 6 7 6 5 7 7 9 7 6 7 7 10 8 8 9 8 8 8 9 8 6 7
2 3 8 8 8 8 8 7 6 5 5 5 5 5 6 6 6 6 6 6 8 7 8 6 6 5 6 7 6 8 10 9 6 6 7 7 8 7 7 8 9 6 7
3 5 9 7 8 9 7 6 7 6 4 4 4 4 4 4 4 4 4 3 6 10 7 7 6 5 5 6 6 7 7 6 5 5 8 4 4 6 6 7 7 7 7
1 6 7 7 7 7 7 7 6 6 5 3 2 3 4 5 5 4 3 4 8 9 6 6 6 7 6 5 7 6 5 5 5 5 3 3 3 4 5 5 5 6 6
4 5 7 5 5 6 6 6 6 6 6 6 4 2 2 4 5 5 3 6 10 10 8 4 5 7 8 7 6 6 6 4 3 3 2 2 2 1 3 4 3 4 5
6 4 4 3 3 4 4 4 5 7 7 7 7 6 4 3 4 5 6 4 9 9 7 6 6 8 9 9 9 8 6 6 5 4 2 2 2 2 3 3 4 3 3
11 9 7 4 2 2 2 3 5 6 7 7 7 8 8 6 5 6 7 7 8 9 8 7 6 7 11 12 11 11 7 7 6 5 4 4 4 4 4 3 3 3 3
10 9 6 3 1 1 2 3 4 5 7 8 8 8 10 8 7 7 8 9 11 11 10 8 8 8 11 14 14 12 10 8 8 7 6 5 7 6 6 6 5 5 4
5 7 6 6 3 1 3 4 5 6 7 8 9 10 10 10 10 10 10 11 12 12 12 11 10 10 11 13 15 14 13 11 9 9 8 8 9 8 8 8 7 7 7
5 6 6 5 5 5 3 3 4 7 8 9 11 12 13 13 14 13 13 12 14 14 15 15 14 12 13 14 16 17 17 16 14 12 11 11 13 10 10 10 9 9 9
5 6 6 6 6 6 5 5 6 7 7 9 11 12 14 14 14 14 14 16 16 15 17 17 18 17 15 16 18 18 18 16 15 16 14 15 15 14 12 13 12 11 11
6 7 7 7 7 7 6 7 7 8 9 10 9 9 11 13 15 15 15 18 17 18 18 19 19 19 19 17 16 19 19 18 17 17 17 19 17 17 16 15 16 14 13
5 5 7 8 8 8 7 8 7 8 8 9 9 11 15 14 12 14 16 14 15 17 17 17 17 18 20 20 19 18 18 19 19 18 19 23 21 20 19 18 18 19 16
4 5 6 7 7 8 8 8 9 9 9 10 11 12 12 13 14 15 15 16 16 17 18 18 19 19 20 20 20 21 20 20 20 20 19 23 23 23 22 21 20 19 20
4 5 6 8 8 9 10 9 10 10 11 12 13 13 13 14 16 16 17 17 19 19 20 20 20 20 21 23 23 22 22 23 23 22 21 23 24 26 26 24 22 21 21
5 6 8 9 9 11 12 13 14 14 15 15 15 15 15 15 16 17 18 19 19 19 19 22 21 21 20 20 22 24 25 25 25 25 24 22 24 27 28 28 26 24 22
6 8 9 11 11 13 13 13 14 15 16 18 19 19 19 19 18 18 19 20 21 20 20 20 21 22 22 21 23 24 26 26 27 27 26 25 23 26 30 30 30 28 25
7 9 11 12 13 13 13 13 14 14 15 17 18 18 20 20 21 20 21 22 22 22 21 21 21 21 26 26 26 29 27 29 30 27 27 26 25 24 22 29 31 30 28
8 10 13 13 13 13 13 13 12 13 13 15 16 17 18 19 20 21 22 22 21 23 23 22 22 22 23 24 26 27 27 27 31 30 31 31 28 32 32 29 29 32 30
8 9 12 13 13 13 13 12 12 12 13 14 14 14 16 17 18 19 20 20 19 21 22 22 23 23 24 25 25 24 25 28 28 27 30 32 33 36 34 33 27 29 30
6 8 9 11 11 11 10 11 12 13 15 14 13 14 14 13 13 15 16 17 17 19 21 22 22 23 23 21 19 19 25 27 28 30 31 33 29 34 33 31 29 29 25
4 6 8 10 10 10 9 9 10 14 13 16 14 13 13 12 12 11 12 14 15 16 18 20 21 22 22 20 15 11 5 12 21 23 22 28 28 31 31 27 24 24 24
2 5 8 10 10 9 9 11 11 12 13 13 14 16 13 14 12 11 12 13 14 14 15 16 18 20 21 21 21 13 5 6 6 13 15 16 16 18 21 23 20 21 23
3 4 6 8 9 8 8 10 11 12 13 14 15 16 16 14 13 12 11 11 12 13 14 16 17 18 19 21 20 22 26 17 8 7 12 8 9 13 16 18 16 12 11
5 4 5 7 8 9 9 9 10 12 12 14 15 15 14 13 12 11 11 11 12 12 14 15 16 17 16 17 20 21 19 23 21 7 8 10 5 6 7 9 8 9 5
7 6 5 5 7 8 10 10 10 11 14 15 15 16 14 16 15 12 13 12 12 12 13 13 14 16 18 17 19 21 23 16 13 9 7 9 11 5 7 10 8 8 6
Wind_Direction
86 125 162 169 171 172 165 154 148 130 119 115 117 124 130 127 126 136 132 131 120 121 121 112 95 74 86 108 114 126 135 130 124 114 111 108 100 93 93 106 86 98 93
323 181 174 173 179 175 175 164 155 141 123 114 114 118 134 135 134 139 143 140 151 147 116 110 117 92 105 117 117 114 128 133 123 117 107 96 100 94 92 98 97 96 90
33 165 176 180 188 186 185 178 165 160 145 124 126 134 146 151 145 152 172 189 196 147 144 145 134 131 131 136 136 137 132 136 133 117 100 103 100 101 99 96 94 97 95
81 178 172 186 192 192 195 193 195 185 178 172 148 140 166 188 193 197 216 205 166 156 178 170 177 171 161 167 165 153 145 140 131 101 84 108 105 107 106 104 105 103 100
37 191 173 164 188 195 203 200 212 214 204 207 208 208 197 205 221 225 226 191 178 185 199 220 213 197 184 189 190 180 172 174 168 102 125 118 116 161 128 130 121 118 112
71 102 139 138 173 199 211 222 222 227 224 220 226 234 238 242 242 238 233 201 196 205 222 238 232 216 193 192 205 215 217 220 209 206 194 199 147 199 168 172 163 147 139
78 78 91 121 126 179 237 254 246 243 245 239 238 241 244 249 253 249 246 238 222 226 240 247 242 224 206 199 219 220 222 228 212 224 222 213 200 189 190 191 186 182 179
58 75 89 96 100 188 229 251 260 259 256 254 254 254 250 252 259 258 253 246 241 242 247 245 246 237 222 212 215 227 229 229 220 232 230 226 225 200 204 206 205 204 206
39 34 36 41 38 308 264 259 267 260 258 259 262 262 263 260 262 258 258 252 248 247 250 249 250 247 236 230 226 231 233 234 227 238 236 233 241 218 220 220 220 214 214
33 15 5 3 2 359 326 269 264 269 264 263 262 261 263 263 264 260 257 262 259 258 257 256 254 252 246 241 239 238 239 241 240 242 240 234 235 225 221 228 230 229 229
15 356 346 335 329 323 319 306 292 276 270 276 280 271 266 263 260 257 254 247 257 260 262 261 260 258 254 250 246 244 243 242 243 241 241 240 235 230 225 228 232 232 231
351 350 342 336 329 321 317 305 300 297 290 278 278 287 285 273 265 261 256 259 259 259 259 259 259 258 254 245 246 248 242 242 243 243 242 241 237 235 233 230 233 239 236
327 335 332 333 327 323 318 309 298 295 292 284 283 281 275 274 277 267 260 256 259 261 258 259 259 254 247 244 243 238 240 241 243 245 244 244 237 236 234 234 234 239 242
324 330 332 332 331 324 320 309 303 299 290 285 279 282 278 275 272 266 260 257 258 256 255 253 252 252 250 249 245 245 243 242 241 244 247 249 240 238 236 235 235 237 243
312 323 329 328 324 319 317 307 303 298 295 290 292 286 284 278 274 271 267 268 262 258 257 255 253 250 251 250 250 249 246 247 246 245 248 250 245 240 238 237 238 242 241
302 311 318 319 315 311 307 303 298 293 290 290 286 283 282 280 276 273 271 268 265 267 263 260 257 250 247 248 249 247 249 250 249 246 247 247 252 242 241 241 242 244 245
294 305 314 316 311 309 305 300 296 290 288 285 282 280 277 275 273 271 270 267 266 265 264 263 260 252 251 247 249 249 247 248 250 247 245 246 247 251 242 242 243 245 246
289 299 311 313 312 310 306 302 297 293 290 285 283 281 278 273 269 267 264 262 262 262 263 264 264 259 255 255 252 250 250 248 247 249 248 246 245 241 248 246 244 245 245
290 303 313 316 314 313 312 307 300 297 297 291 286 284 283 280 272 265 264 263 262 259 257 258 259 259 260 257 249 252 253 249 250 247 245 248 246 243 245 244 250 244 242
286 305 316 319 318 316 316 314 308 305 308 305 298 295 296 289 280 272 267 267 267 264 260 257 257 258 259 256 252 254 256 256 254 247 255 257 258 245 252 244 240 243 238
284 307 318 320 319 318 315 320 316 313 314 313 305 303 306 301 291 279 270 271 270 265 262 262 265 265 263 258 257 257 252 252 252 253 256 260 259 263 250 245 240 231 234
285 317 334 335 330 325 313 313 309 307 307 309 309 310 312 310 302 290 273 269 265 267 261 257 259 265 265 258 249 254 255 250 243 240 238 246 246 255 253 238 231 234 237
314 340 346 347 344 337 324 316 314 311 308 314 320 316 315 312 309 299 282 277 274 269 264 262 262 261 264 259 246 240 239 239 274 225 232 241 242 238 234 233 229 234 235
296 323 333 343 345 340 335 326 324 315 309 311 314 317 322 320 316 308 294 282 272 267 263 266 270 269 269 267 262 250 252 257 250 262 254 246 232 242 239 231 218 212 219
265 281 317 340 346 341 332 329 326 320 313 312 312 321 325 327 330 323 308 292 280 273 271 266 267 262 264 270 267 265 260 254 252 252 268 257 241 233 232 225 214 187 188
253 263 282 309 328 340 335 330 324 323 324 322 321 320 323 329 330 333 324 310 292 285 278 278 273 269 267 263 267 264 262 256 237 235 239 262 264 246 191 165 174 160 154